GOES 16

Last updated on Thu Jul 03 2025 00:02:22 GMT+0000 (Coordinated Universal Time)

1 41866U 16071A 25183.54585712 -.00000083 00000+0 00000+0 0 9996 2 41866 0.0511 235.9771 0000905 268.1814 228.4425 1.00272197 31596
UTC large
Height (km)
Speed (km/s)
/
Latitude / Longitude
Inclination (degrees)
Orbital Period (minutes)
Azimuth
Elevation
Range (km)
Doppler Factor

Next 0 passes for location: London (51.5072 / 0.1276)

Sorry there are no passes over London.